Flag for Slovakia Weather past 2 weeks in Prešov, Slovakia

36 °F


Feels Like: 32 °F
Forecast: 32 / 45 °F
Wind: 5 mph from Southwest

Location: Kosice - Barca

Current Time: Nov 30, 2015 at 11:47:00 PM

Latest Report: Nov 30, 2015 at 11:00 PM

Visibility: 10 mi

Pressure: 29.95 "Hg

Humidity: 93%

Dew point: 34 °F

Location of PrešovLocation

Historic Weather in Prešov — Graph


Prešov temperature yesterday

Maximum temperature yesterday: 36 °F (at 7:30 PM)
Minimum temperature yesterday: 32 °F (at 12:00 AM)
Average temperature yesterday: 33 °F

Past Weeks' High & Low Weather Summary

High63 °F (Nov 18, 1:00 PM)100% (Nov 16, 3:00 AM)30.33 "Hg (Nov 16, 3:00 AM)
Low19 °F (Nov 25, 4:30 AM)48% (Nov 24, 12:30 PM)29.27 "Hg (Nov 21, 3:00 AM)
Average39 °F84%29.87 "Hg
* Reported Nov 15 10:00 PM — Nov 30 10:30 PM, Prešov, Weather by CustomWeather, © 2015

Note: Actual official high and low records may vary slightly from our data, if they occured in-between our weather recording intervals... More about our weather records


Prešov weather history for previous 24 hours

Time TempWeatherWind HumidityBarometerVisibility
10:30 PM
Mon, Nov 30
32 °FClear.3 mph93%29.98 "Hg10 mi
10:00 PM32 °FClear.2 mph100%29.98 "Hg10 mi
9:30 PM32 °FClear.3 mph100%29.98 "Hg10 mi
9:00 PM34 °FClear.5 mph100%29.98 "Hg10 mi
8:30 PM34 °FPassing clouds.3 mph93%29.98 "HgN/A
8:00 PM34 °FClear.1 mph100%29.98 "Hg10 mi
7:30 PM36 °FClear.1 mph87%29.98 "Hg10 mi
7:00 PM36 °FClear.2 mph93%29.98 "Hg10 mi
6:30 PM39 °FClear.3 mph87%29.98 "Hg10 mi
6:00 PM37 °FClear.2 mph93%29.98 "Hg10 mi
5:30 PM36 °FPassing clouds.3 mph93%29.98 "HgN/A
5:00 PM39 °FClear.3 mph93%29.98 "Hg10 mi
4:30 PM39 °FPassing clouds.5 mph93%29.98 "HgN/A
4:00 PM41 °FPassing clouds.1 mph87%29.95 "HgN/A
3:30 PM43 °FPassing clouds.2 mph81%29.95 "HgN/A
3:00 PM45 °FPassing clouds.2 mph81%29.95 "HgN/A
2:30 PM45 °FPassing clouds.2 mph87%29.95 "HgN/A
2:00 PM45 °FScattered clouds.2 mph87%29.95 "HgN/A
1:30 PM45 °FPassing clouds.2 mph81%29.95 "HgN/A
1:00 PM45 °FPassing clouds.3 mph87%29.92 "HgN/A
12:30 PM45 °FScattered clouds.2 mph81%29.95 "HgN/A
12:00 PM43 °FScattered clouds.2 mph87%29.95 "HgN/A
11:30 AM43 °FScattered clouds.3 mph87%29.92 "HgN/A
11:00 AM43 °FLight rain. Partly sunny.1 mph87%29.95 "HgN/A
10:30 AM43 °FPartly sunny.7 mph87%29.95 "HgN/A
10:00 AM41 °FPartly sunny.8 mph93%29.92 "HgN/A
9:30 AM41 °FPartly sunny.9 mph87%29.92 "HgN/A
9:00 AM41 °FScattered clouds.8 mph87%29.92 "Hg5 mi
8:00 AM37 °FFog.7 mph93%29.92 "Hg2 mi
7:30 AM37 °FBroken clouds.5 mph93%29.92 "Hg4 mi
7:00 AM37 °FPassing clouds.3 mph93%29.92 "HgN/A
6:30 AM37 °FPassing clouds.5 mph93%29.92 "HgN/A
6:00 AM37 °FPassing clouds.3 mph93%29.92 "HgN/A
5:30 AM37 °FPassing clouds.2 mph93%29.92 "HgN/A
5:00 AM36 °FPassing clouds.3 mph100%29.92 "HgN/A
4:30 AM37 °FPassing clouds.6 mph93%29.95 "HgN/A
4:00 AM36 °FPassing clouds.6 mph93%29.95 "HgN/A
3:30 AM36 °FPassing clouds.6 mph93%29.95 "HgN/A
3:00 AM36 °FPassing clouds.6 mph93%29.95 "HgN/A
2:30 AM36 °FPartly cloudy.7 mph93%29.95 "HgN/A
1:30 AM37 °FPassing clouds.12 mph87%29.95 "HgN/A
1:00 AM36 °FPassing clouds.10 mph93%29.95 "HgN/A
12:00 AM36 °FPassing clouds.8 mph87%29.98 "HgN/A
11:30 PM
Sun, Nov 29
36 °FPartly cloudy.7 mph87%29.98 "HgN/A
11:00 PM36 °FPassing clouds.9 mph87%29.98 "HgN/A
Weather by CustomWeather, © 2015

See weather overviewHow to use our weather pages